Home   Weather   Guiyang   Past weeks

Flag for China Past Weather in Guiyang, Guizhou, China — Yesterday and Last 2 Weeks

Now
39 °F

Fog.


Feels Like: 39 °F
Forecast: 37 / 68 °F
Wind: 1 mph from South

Location: Guiyang Airport

Current Time: Dec 9, 2016 at 6:19:19 am

Latest Report: Dec 9, 2016 at 5:00 am


Visibility: 2 mi

Pressure: 30.07 "Hg (26.36 "Hg at 1067m altitude)

Humidity: 100%

Dew Point: 39 °F

Location of GuiyangLocation

Past Weather in Guiyang — Graph

°F

Guiyang Temperature Yesterday

Maximum temperature yesterday: 68 °F (at 4:00 pm)
Minimum temperature yesterday: 36 °F (at 6:00 am)
Average temperature yesterday: 49 °F

High & Low Weather Summary for the Past Weeks

 TemperatureHumidityPressure
High68 °F (Dec 8, 4:00 pm)100% (Nov 24, 8:00 pm)30.51 "Hg (Nov 24, 8:00 pm)
Low28 °F (Nov 27, 5:00 am)25% (Nov 27, 2:00 pm)30.01 "Hg (Nov 24, 4:00 pm)
Average45 °F81%30.26 "Hg
* Reported Nov 24 5:00 am — Dec 9 5:00 am, Guiyang, Weather by CustomWeather, © 2016

Note: Actual official high and low records may vary slightly from our data, if they occured in-between our weather recording intervals... More about our weather records

Advertising

Guiyang Weather History for the Previous 24 Hours

Scroll right to see more
 ConditionsComfort  
Time TempWeatherWind HumidityBarometerVisibility
5:00 am
Fri, Dec 9
39 °FFog.1 mph100%30.07 "Hg2 mi
4:00 am39 °FFog.No wind93%30.07 "Hg2 mi
3:00 am41 °FFog.1 mph93%30.07 "Hg2 mi
2:00 am39 °FFog.1 mph100%30.07 "Hg2 mi
1:00 am41 °FFog.1 mph100%30.09 "Hg2 mi
12:00 am41 °FFog.1 mph93%30.09 "Hg2 mi
11:00 pm
Thu, Dec 8
45 °FFog.1 mph93%30.09 "Hg3 mi
10:00 pm45 °FFog.1 mph93%30.09 "Hg3 mi
9:00 pm50 °FFog.1 mph76%30.09 "Hg3 mi
8:00 pm52 °FClear.1 mph72%30.07 "Hg5 mi
7:00 pm57 °FClear.3 mph63%30.07 "Hg5 mi
6:00 pm61 °FClear.3 mph55%30.07 "Hg5 mi
5:00 pm66 °FClear.8 mph49%30.04 "Hg5 mi
4:00 pm68 °FClear.8 mph46%30.04 "Hg5 mi
3:00 pm66 °FClear.6 mph49%30.07 "Hg4 mi
2:00 pm64 °FClear.3 mph52%30.07 "Hg4 mi
1:00 pm63 °FFog.3 mph56%30.12 "Hg3 mi
12:00 pm59 °FFog.1 mph63%30.18 "Hg3 mi
11:00 am46 °FFog.1 mph100%30.21 "Hg1 mi
10:00 am41 °FFog.1 mph100%30.24 "Hg0 mi
9:00 am39 °FFog.No wind100%30.24 "Hg0 mi
8:00 am37 °FFog.1 mph100%30.21 "Hg0 mi
7:00 am39 °FFog.1 mph100%30.21 "Hg0 mi
6:00 am36 °FFog.1 mph100%30.21 "Hg0 mi
Weather by CustomWeather, © 2016

See weather overviewHow to use our weather pages